#timestamp,LO_Frequency,Hit,StdDev 
1658152815.1,286046998.1,P
1658152816.0,286046998.1,N
1658152835.8,286046997.2,N
1658152855.7,286046997.7,N
1658152875.5,286046997.5,N
1658152895.3,286046995.3,N
1658152915.2,286046996.7,N
1658152935.0,286046999.2,N
1658152935.9,286046999.2,N
1658152955.8,286047001.2,N
1658152975.6,286046998.6,N
1658152995.4,286046998.8,N
1658153015.3,286047000.6,N
1658153035.1,286047001.9,N
1658153055.8,286047000.5,N
1658153075.7,286046999.1,N
1658153095.5,286046997.1,N
1658153115.4,286046995.1,N
1658153135.2,286046996.8,N
1658153155.0,286046999.6,N
1658153155.9,286046999.6,N
1658153175.8,286046995.1,N
1658153195.6,286046998.0,N
1658153215.5,286046995.2,N
1658153235.3,286046998.0,N
1658153255.1,286046995.3,N
1658153275.9,286046997.9,N
1658153295.7,286046995.2,N
1658153315.5,286046996.3,N
1658153335.4,286046993.7,Y
1658153355.2,286046995.3,P
1658153375.1,286046996.7,N
1658153376.0,286046996.7,N
1658153395.8,286046995.5,Y
1658153415.6,286046998.6,P
1658153435.5,286046996.6,P
1658153455.3,286046997.4,N
1658153475.2,286046996.5,Y
1658153495.9,286047000.2,P
1658153515.7,286047000.9,N
1658153535.6,286047000.8,N
1658153555.4,286047001.2,N
1658153575.2,286047000.1,N
1658153595.1,286047004.1,Y
1658153596.0,286047004.1,P
1658153615.8,286047001.8,N
1658153635.7,286047004.0,N
1658153655.5,286047002.0,N
1658153675.3,286047001.6,N
1658153695.2,286047001.6,N
1658153715.0,286047004.4,Y
1658153715.9,286047004.4,P
1658153735.8,286047002.0,N
1658153755.6,286047001.1,N
1658153775.4,286047002.3,N
1658153795.3,286046999.8,N
1658153815.1,286047000.6,N
1658153835.8,286047002.8,N
1658153855.7,286046999.1,N
1658153875.5,286046996.8,N
1658153895.4,286046996.8,N
1658153915.2,286046999.6,N
1658153935.0,286046996.8,N
1658153935.9,286046996.8,N
1658153955.8,286046996.7,N
1658153975.6,286046998.8,N
1658153995.4,286046999.0,N
1658154015.3,286046999.9,N
1658154035.1,286047002.5,N
1658154055.9,286047002.8,N
1658154075.7,286046999.7,N
1658154095.5,286047003.8,N
1658154115.4,286047001.7,N
1658154135.2,286047002.9,N
1658154155.0,286047001.5,N
1658154155.9,286047001.5,N
1658154175.8,286047002.1,N
1658154195.6,286047000.0,N
1658154215.5,286046999.7,N
1658154235.3,286047002.1,N
1658154255.1,286047000.9,N
1658154275.9,286046999.0,N
1658154295.7,286046998.5,N
1658154315.5,286047000.8,N
1658154335.4,286046998.1,N
1658154355.2,286046999.5,N
1658154375.1,286046999.1,N
1658154376.0,286046999.1,N
1658154395.8,286046999.5,N
1658154415.6,286046996.5,N
1658154435.5,286046997.1,N
1658154455.3,286046997.7,N
1658154475.1,286046999.5,N
1658154495.9,286046996.8,N
1658154515.7,286046997.1,N
1658154535.6,286046997.0,N
1658154555.4,286046996.9,N
1658154575.2,286046997.9,N
1658154595.1,286046997.4,N
1658154596.0,286046997.4,N
1658154615.8,286046996.7,N
1658154635.7,286046997.2,N
1658154655.5,286047001.2,N
1658154675.3,286047001.2,N
1658154695.2,286047004.3,N
1658154715.0,286047003.2,N
1658154715.9,286047003.2,N
1658154735.7,286046999.8,N
1658154755.6,286047002.7,N
1658154775.4,286047000.3,N
1658154795.3,286046997.3,N
1658154815.1,286046997.0,N
1658154816.0,286046997.0,N
1658154835.8,286046999.6,N
1658154855.7,286047000.0,N
1658154875.5,286047004.3,N
1658154895.3,286046998.2,N
1658154915.2,286046998.5,N
1658154935.0,286046999.1,N
1658154935.9,286046999.1,N
1658154955.8,286046999.8,N
1658154975.6,286047002.0,N
1658154995.4,286047003.0,N
1658155015.3,286047003.2,N
1658155035.1,286047005.6,N
1658155055.8,286047004.9,N
1658155075.7,286047005.8,N
1658155095.5,286047007.2,N
1658155115.4,286047008.6,N
1658155135.2,286047005.7,N
1658155155.0,286047003.0,N
1658155155.9,286047003.0,N
1658155175.8,286047005.8,N
1658155195.6,286047001.3,N
1658155215.4,286047002.7,N
1658155235.3,286047002.1,N
1658155255.1,286047003.1,N
1658155275.9,286047007.3,N
1658155295.7,286047002.9,N
1658155315.5,286047005.6,N
1658155335.4,286047005.9,N
1658155355.2,286047004.2,N
1658155375.1,286047001.7,N
1658155376.0,286047001.7,N
1658155395.8,286047002.6,N
1658155415.6,286047004.3,N
1658155435.5,286047003.5,N
1658155455.3,286047004.1,N
1658155475.1,286047001.3,N
1658155495.9,286047001.5,N
1658155515.7,286047002.1,N
1658155535.6,286047005.5,N
1658155555.4,286047005.6,N
1658155575.2,286047005.5,N
1658155595.1,286047003.4,N
1658155596.0,286047003.4,N
1658155615.8,286047004.3,N
1658155635.6,286047004.1,N
1658155655.5,286047001.7,N
1658155675.3,286047002.2,N
1658155695.2,286047002.7,N
1658155715.9,286046998.2,N
1658155735.7,286047000.3,N
1658155755.6,286046996.8,N
1658155775.4,286046996.5,N
1658155795.2,286046994.9,N
1658155815.1,286046996.9,N
1658155816.0,286046996.9,N
1658155835.8,286046996.5,N
1658155855.7,286046999.0,N
1658155875.5,286047001.2,N
1658155895.3,286047002.0,N
1658155915.2,286047001.1,N
1658155935.0,286047000.5,N
1658155935.9,286047000.5,N
1658155955.8,286047002.5,N
1658155975.6,286047001.5,N
1658155995.4,286047001.0,N
1658156015.3,286046998.6,N
1658156035.1,286046996.7,N
1658156055.8,286047000.7,N
1658156075.7,286046998.1,N
1658156095.5,286047000.3,N
1658156115.4,286047002.3,N
1658156135.2,286047001.6,N
1658156155.0,286047002.6,N
1658156155.9,286047002.6,N
1658156175.8,286047000.5,N
1658156195.6,286047002.3,N
1658156215.4,286047002.7,N
1658156235.3,286047002.4,N
1658156255.1,286047001.5,N
1658156275.9,286047001.4,N
1658156295.7,286047004.1,N
1658156315.5,286047003.7,N
1658156335.4,286047001.7,N
1658156355.2,286047006.0,N
1658156375.0,286047001.8,N
1658156375.9,286047001.8,N
1658156395.8,286047001.8,N
